RH
32 32 35 37 37 37 35 34 34 34 34 36 38 39 39 40 41 43 45 48 59 80 100 104 99 102 106 101 94 90 91 92 91 91 85 71 65 70 77 82 80 75 78 89 100 103 101 99 96 87 75 65 57 54 57 57 49 45 41 34 30 28 26 26 25 24 27 32 37 40 34 23 14 11 11 12 13 14 14 14 15 17 22 27 37
31 32 35 35 35 35 34 35 36 35 36 37 36 37 42 49 54 58 65 79 97 108 110 106 101 103 105 102 102 100 98 98 92 84 78 69 64 65 74 85 88 89 98 102 104 107 106 101 94 85 74 64 58 57 58 56 50 45 43 38 32 30 28 25 24 23 23 23 26 30 32 29 20 11 9 10 10 12 13 14 13 14 17 23 30
30 32 33 33 35 34 33 36 36 36 39 36 34 49 70 82 91 96 95 95 95 89 93 104 105 101 103 103 102 101 100 98 88 75 67 63 61 67 78 88 94 98 103 103 101 103 104 96 83 76 73 66 60 60 59 57 51 46 42 40 36 31 27 24 22 21 21 20 20 22 25 26 22 13 8 8 9 9 10 12 13 13 13 17 24
30 31 31 32 33 33 35 39 38 40 40 30 39 75 98 99 101 106 104 99 94 86 90 100 99 98 103 99 94 98 99 94 83 72 67 63 64 75 85 90 96 102 103 102 101 103 101 89 76 74 75 70 63 61 60 57 52 46 40 38 37 32 25 22 19 17 18 17 16 18 20 20 18 14 9 7 7 8 8 9 11 12 12 12 18
29 30 31 30 32 34 35 34 34 37 30 26 56 97 104 96 98 102 103 104 104 102 101 100 99 100 100 93 91 96 93 86 81 78 74 71 73 82 91 96 100 104 104 101 100 103 99 85 75 76 77 71 63 59 58 56 50 44 38 36 36 33 26 20 17 14 15 14 13 14 15 16 15 12 9 7 7 6 6 8 8 10 11 11 13
29 30 29 29 31 31 32 34 35 32 31 46 80 103 98 93 96 99 102 103 101 102 103 101 101 102 99 97 98 97 92 86 82 79 75 75 79 86 95 100 101 102 103 102 102 104 98 83 74 75 75 69 60 56 56 55 49 44 38 35 35 32 26 20 16 14 13 11 11 11 11 13 12 10 9 8 7 6 6 6 7 8 10 10 11
26 26 25 26 26 29 37 43 39 37 57 85 100 101 98 98 99 99 102 102 100 99 101 100 99 99 99 100 101 102 101 93 84 81 82 83 83 84 90 96 96 98 101 102 105 105 94 80 73 70 67 61 55 56 58 55 50 43 35 32 33 30 24 18 15 13 11 10 10 9 9 10 10 9 9 8 7 6 5 6 6 6 8 9 10
18 17 18 16 14 17 19 22 36 58 84 103 104 97 95 95 97 102 102 101 102 100 100 101 99 99 99 98 100 103 102 96 89 89 92 92 87 83 84 88 90 95 100 102 107 105 91 79 69 59 55 54 56 62 63 56 51 43 34 30 31 29 22 17 14 12 11 9 8 8 8 8 8 8 8 8 7 6 5 5 5 5 6 8 9
12 10 10 8 8 11 6 10 49 89 99 102 104 99 94 94 97 102 103 101 103 103 102 102 99 98 98 98 101 101 95 90 91 94 95 93 88 85 86 88 89 94 99 101 105 102 88 75 62 51 50 56 62 67 64 59 54 44 34 30 31 29 22 17 14 13 10 9 7 7 7 6 7 7 7 7 7 6 6 5 5 5 5 6 8
11 7 8 12 13 15 9 6 38 80 91 90 92 89 93 104 101 97 102 104 103 103 103 104 104 102 100 99 99 97 93 91 92 95 95 92 89 89 93 94 93 96 99 101 103 102 90 74 59 52 57 64 68 68 66 65 59 45 33 30 31 29 23 18 15 13 11 9 7 6 6 5 6 6 6 7 6 6 6 5 5 5 5 5 6
10 6 7 12 9 9 10 -0 12 58 87 85 82 85 96 106 100 96 101 102 101 104 103 105 109 109 106 103 98 95 98 99 97 96 97 94 91 93 96 97 98 99 100 101 103 102 93 77 61 57 63 71 73 75 76 74 61 44 32 29 31 29 24 19 17 14 11 8 6 6 5 5 5 5 5 6 6 6 5 5 5 4 4 5 5
8 7 5 7 5 5 9 -2 1 47 89 94 89 94 98 100 102 108 107 99 96 99 101 105 110 107 105 103 100 99 102 102 101 101 99 96 96 98 99 100 101 100 99 100 100 96 88 75 63 62 71 81 88 90 87 76 57 39 30 29 31 29 24 20 18 15 11 8 6 5 5 5 4 5 5 5 5 5 5 5 5 5 4 4 4
6 7 6 7 8 6 8 4 -4 17 62 89 96 101 101 97 97 102 103 104 111 110 104 105 106 101 101 102 101 102 102 101 103 102 97 98 101 102 101 101 101 99 98 99 96 89 82 73 69 75 86 96 100 95 83 67 49 35 30 31 32 29 24 20 18 14 10 8 6 5 5 4 4 4 4 4 4 4 4 5 5 5 5 4 4
5 7 8 8 10 9 9 8 -2 3 38 66 64 56 52 44 41 47 63 91 122 130 116 108 106 103 100 101 101 101 101 102 102 98 96 101 103 101 101 102 100 98 97 98 95 89 83 80 82 90 98 101 97 86 70 55 42 34 32 32 33 29 23 20 17 13 9 7 6 5 4 4 4 4 4 4 4 4 4 4 5 5 5 4 4
5 7 10 10 12 13 9 6 4 10 24 25 13 8 11 12 14 26 40 63 95 112 104 98 107 110 104 101 102 103 103 102 98 96 99 103 102 101 101 101 99 98 97 99 102 100 96 95 98 100 100 95 85 72 57 45 39 38 35 32 32 28 22 20 17 12 8 7 6 5 5 4 4 4 3 4 4 4 4 4 4 4 4 4 5
5 6 9 11 14 14 9 6 10 16 19 16 11 11 16 19 21 31 44 55 73 90 91 92 105 109 101 100 103 104 102 98 95 99 103 102 100 101 102 101 100 101 100 101 104 105 99 98 103 105 101 87 71 57 45 38 40 42 37 33 32 28 22 19 17 12 8 7 6 5 5 4 4 4 3 3 3 3 4 4 3 4 4 4 5
8 8 9 12 14 12 9 9 13 25 43 53 45 31 32 41 46 57 71 74 78 86 89 95 107 105 97 100 105 102 100 99 99 102 100 97 99 102 102 101 100 100 101 100 102 101 96 96 103 105 93 74 57 44 37 39 45 42 36 35 33 26 22 20 16 11 8 7 7 6 5 5 5 4 3 3 3 3 4 4 3 4 4 4 5
10 10 9 10 11 10 10 9 9 15 31 43 38 35 48 63 67 72 82 82 81 83 85 94 105 104 99 102 102 98 99 102 102 99 93 93 99 102 100 99 98 100 101 100 102 103 99 99 101 93 76 59 47 37 37 47 51 42 37 38 33 25 23 21 16 11 8 7 7 6 6 5 5 5 4 4 4 3 4 4 4 4 4 4 4
11 11 11 11 11 10 10 11 11 12 18 25 26 32 54 76 84 87 93 97 97 96 95 99 104 102 100 103 100 96 98 100 98 94 93 97 101 102 100 99 100 101 101 100 103 103 99 96 91 79 66 54 43 40 48 55 51 41 39 38 31 25 24 21 16 11 8 8 8 7 6 6 5 5 5 4 4 4 4 4 4 4 4 4 4
12 12 11 11 11 11 11 12 12 12 17 23 23 29 53 82 100 105 106 106 106 103 99 100 102 102 103 105 104 100 99 99 96 94 98 102 102 101 102 101 101 103 104 102 100 97 96 93 86 76 68 54 44 50 63 62 50 42 41 38 29 25 25 22 16 11 9 9 8 7 7 6 5 5 5 5 5 5 4 4 5 4 5 5 4
12 12 12 12 11 12 13 14 13 14 18 22 25 33 48 65 83 100 104 102 103 104 101 100 102 104 106 108 106 103 101 100 99 100 103 104 102 101 101 100 101 104 104 102 99 96 97 98 93 84 71 58 55 66 71 61 48 44 42 35 28 25 26 23 15 10 10 10 8 8 8 7 6 6 5 5 5 4 4 4 4 5 5 5 4
12 12 11 11 10 12 14 15 16 18 22 28 36 49 63 73 86 100 102 99 100 102 101 104 106 108 108 105 101 101 102 100 99 100 101 102 103 103 101 99 100 102 102 102 101 100 102 102 98 87 74 68 72 75 68 55 47 45 41 32 26 26 27 22 14 10 11 10 9 10 9 8 8 7 6 7 6 5 5 4 5 5 4 4 4
12 11 11 11 13 16 19 21 23 24 26 28 32 42 61 83 99 103 100 100 103 101 100 103 104 105 106 101 97 100 102 99 98 99 99 101 102 101 100 100 99 100 102 103 101 102 104 104 98 88 81 81 81 73 61 52 48 45 37 29 26 28 27 20 13 12 12 10 10 11 10 9 9 8 8 8 7 6 6 5 5 6 4 4 4
12 11 11 12 14 18 20 22 28 35 35 31 29 31 42 62 81 87 86 88 90 91 96 101 100 100 101 99 98 101 102 100 100 98 98 100 101 99 98 95 92 95 102 104 103 102 102 101 99 93 88 87 80 68 58 54 50 42 33 27 27 28 24 17 13 12 12 10 11 13 12 11 12 11 11 11 11 12 12 11 9 7 5 5 5
12 12 12 13 16 18 19 21 31 44 52 52 51 51 48 48 51 53 54 55 55 61 80 97 102 103 104 103 103 105 104 102 99 95 96 99 98 94 88 80 76 85 98 104 105 106 104 100 98 96 92 85 76 66 61 56 48 37 30 29 28 26 21 15 12 13 12 11 12 14 13 14 16 17 17 17 20 23 25 24 20 13 8 7 6
13 15 17 20 22 22 23 27 35 48 59 66 70 71 67 62 57 56 60 60 56 59 77 96 104 105 107 108 108 109 109 107 103 102 101 96 86 75 66 60 63 79 96 101 102 107 109 104 99 96 90 82 74 70 63 53 42 33 31 29 26 22 18 13 13 14 11 10 14 15 14 17 22 24 25 26 29 31 34 34 26 17 14 13 11
18 22 26 30 34 37 40 46 52 59 66 72 77 81 84 82 74 69 76 85 86 85 91 98 100 101 102 102 101 103 104 103 101 100 94 84 72 63 62 68 79 92 102 104 103 107 109 104 97 92 86 82 78 69 56 44 37 33 31 26 21 19 16 12 13 14 11 11 16 16 15 21 28 30 33 38 41 39 39 36 29 21 20 18 13
29 34 37 43 51 54 58 65 72 76 78 76 75 79 85 88 81 72 74 80 79 76 75 76 77 77 77 77 79 80 79 77 76 75 72 69 71 73 80 89 96 100 103 104 103 102 100 95 92 90 86 82 71 56 44 39 37 32 26 21 19 17 13 13 15 13 11 13 17 17 19 27 34 38 42 47 50 49 47 44 38 32 27 20 14
45 45 44 52 65 71 74 80 85 86 83 79 77 76 77 79 80 80 81 81 80 81 82 83 81 76 75 75 75 71 68 67 69 70 72 76 83 89 93 97 97 97 96 95 94 93 91 91 91 87 78 67 54 45 42 38 32 25 21 19 17 14 12 15 16 13 12 16 19 20 25 33 42 49 50 51 55 59 54 45 38 34 33 29 22
66 64 64 72 85 93 95 97 99 100 99 97 95 92 87 85 87 92 95 96 95 96 98 98 97 97 98 97 93 90 89 88 84 79 80 86 94 98 98 98 97 96 92 89 89 89 87 84 78 68 59 52 46 43 39 31 23 21 19 16 14 12 14 17 15 12 14 19 22 26 32 41 51 58 59 59 63 64 58 45 35 33 36 36 29
84 87 92 97 103 105 104 102 101 102 103 103 103 101 100 100 99 100 101 101 100 101 101 101 100 100 102 103 101 99 98 92 83 77 79 88 94 95 94 92 90 88 84 81 79 76 70 64 59 54 51 48 44 37 29 21 19 18 15 13 12 13 16 18 15 13 16 21 28 34 40 49 58 65 67 69 68 65 60 52 44 40 39 37 30
93 93 98 103 104 103 101 100 100 100 101 102 102 101 101 101 101 100 99 100 99 97 94 94 95 95 97 100 100 99 96 90 81 76 78 81 82 81 80 77 75 72 69 67 64 61 58 56 53 50 47 42 34 26 19 17 16 14 11 11 12 15 18 17 14 15 18 24 35 44 48 56 66 72 74 75 72 69 66 61 54 48 41 34 29
89 86 91 99 104 105 103 101 101 102 101 100 99 101 103 103 100 96 91 91 93 93 92 94 96 98 99 99 98 96 93 87 80 76 73 72 71 71 71 69 67 65 63 62 61 59 56 52 48 43 37 29 22 17 14 13 12 10 10 11 14 18 19 16 14 17 20 28 43 53 55 62 73 77 78 80 79 77 75 69 60 49 39 32 30
90 89 93 98 102 103 101 100 100 102 103 105 106 106 102 96 90 87 88 92 98 103 104 102 98 96 94 90 86 86 84 81 78 75 73 71 71 71 70 68 65 63 61 59 57 53 48 43 38 31 24 18 13 11 11 10 9 9 11 13 16 19 18 14 16 19 21 31 49 60 63 68 75 78 80 82 86 88 82 72 62 48 36 32 30
94 99 105 106 105 105 103 102 103 103 102 100 96 92 88 87 90 94 97 98 99 101 101 97 90 85 80 76 76 79 80 78 76 74 74 73 73 71 68 65 61 57 53 50 46 41 36 31 25 19 14 11 9 9 9 9 9 11 13 15 17 18 17 15 17 20 23 34 51 66 73 75 75 77 81 83 89 93 85 71 60 47 36 32 30
99 103 103 100 98 97 97 96 96 96 94 93 92 93 94 96 98 97 94 94 97 98 94 85 77 73 73 76 80 83 81 78 76 74 72 70 68 65 62 57 52 47 43 37 32 27 23 19 15 11 9 8 8 8 9 10 12 14 15 15 16 17 17 16 18 20 25 35 51 71 85 85 77 76 80 82 87 93 85 70 57 44 34 33 33
105 104 98 92 88 87 90 93 96 98 99 99 98 96 93 91 92 91 92 95 97 91 80 71 69 71 75 78 80 79 76 73 71 68 65 61 58 54 49 43 38 32 27 22 19 16 14 12 10 9 8 8 9 10 12 14 15 16 16 14 15 17 18 18 19 21 26 35 50 72 92 95 83 76 78 81 86 91 87 72 55 42 36 37 36
105 102 97 94 92 92 94 97 96 94 93 90 87 85 84 85 88 89 91 92 88 78 69 68 69 70 72 72 72 70 68 65 61 58 54 49 43 37 31 26 21 17 15 13 12 11 10 9 8 8 9 10 11 13 15 16 16 16 15 14 14 16 19 20 20 22 26 35 49 71 93 100 89 78 77 81 86 91 90 75 54 42 42 41 38
98 93 90 90 90 90 90 91 90 89 87 84 81 80 80 81 83 85 87 87 80 71 67 67 67 65 65 63 61 58 56 53 49 44 39 33 26 21 17 14 12 11 12 12 11 11 10 10 10 11 11 12 13 14 15 16 15 15 15 15 14 17 20 21 22 23 26 33 46 67 90 101 94 81 77 81 88 95 94 76 54 46 48 44 41
99 97 95 93 93 93 92 92 91 89 84 80 78 77 77 77 80 85 89 85 77 69 66 64 61 58 55 52 50 48 45 41 36 30 25 21 17 14 12 11 12 13 14 15 14 14 14 13 13 13 13 13 13 13 13 14 14 15 16 17 16 17 20 22 23 23 25 30 42 62 85 100 98 86 78 81 90 99 96 79 59 52 51 48 47
100 100 100 98 99 100 97 91 86 80 75 74 77 80 78 75 74 75 75 72 68 65 63 58 55 52 50 47 43 39 34 29 25 23 21 18 16 14 13 13 15 17 19 18 18 17 17 15 14 13 12 11 11 12 12 14 15 16 16 18 18 18 19 21 22 23 25 28 37 55 80 98 100 91 81 80 89 99 100 85 64 54 53 53 53
100 101 103 101 95 88 78 70 66 64 63 66 69 69 66 64 63 63 62 62 61 59 56 52 51 49 45 39 33 28 24 22 22 21 20 17 15 14 13 14 17 20 21 19 18 17 16 15 14 13 13 13 13 13 14 14 15 15 15 16 16 17 17 19 20 23 25 26 32 48 72 94 101 96 86 79 84 97 104 90 68 59 59 55 52
100 97 95 89 81 72 65 61 63 66 69 71 69 64 61 61 63 62 60 57 55 53 51 50 48 43 36 29 24 22 21 21 19 18 16 15 13 12 12 14 18 19 18 16 15 15 15 16 16 16 16 16 16 16 16 15 14 14 14 13 13 14 14 16 17 20 24 26 28 39 63 87 100 100 91 79 78 92 105 96 76 67 67 56 45
98 90 84 80 77 77 78 79 81 84 85 83 78 72 68 65 62 59 55 52 50 50 48 45 40 34 27 23 21 20 20 19 17 15 15 14 14 14 14 15 16 16 15 15 16 17 18 19 19 19 20 20 19 18 16 15 14 13 13 13 13 13 13 14 15 17 22 25 26 32 51 77 97 102 95 82 74 84 102 102 83 73 77 66 46
91 87 86 88 89 88 86 84 82 80 78 75 72 69 65 60 56 52 50 48 47 44 40 34 29 25 23 23 23 21 20 18 17 17 17 17 17 17 16 16 16 17 17 17 18 19 20 20 20 20 21 20 19 17 17 16 16 16 15 15 14 14 14 15 15 15 19 24 26 27 39 63 89 101 99 86 72 76 95 104 90 79 85 82 58
97 99 103 104 100 93 85 79 75 71 67 63 60 58 55 53 51 50 48 45 41 36 29 24 22 23 25 25 23 21 19 19 20 20 20 20 19 19 19 19 19 19 19 20 20 20 20 19 19 19 19 19 19 19 20 20 19 19 18 17 16 16 15 15 15 15 17 21 25 25 30 48 75 96 102 92 75 70 84 100 96 84 88 91 75
105 104 100 95 87 80 73 67 62 59 55 53 52 52 52 51 50 46 42 37 32 27 23 23 25 28 27 24 21 20 21 21 22 22 21 21 20 21 21 20 20 20 20 20 21 21 20 19 19 19 19 21 22 22 23 24 23 22 21 21 20 20 18 16 16 16 15 17 22 25 26 34 56 83 99 98 83 69 73 90 97 89 85 93 90
88 83 77 71 66 62 58 54 52 51 50 49 49 50 48 46 42 38 34 30 26 24 25 28 30 29 25 21 20 22 23 23 24 23 23 23 23 23 24 23 23 22 22 22 22 23 23 21 21 22 23 25 26 26 26 26 25 24 24 24 23 23 22 20 18 17 16 16 18 23 24 27 39 63 89 100 93 76 66 76 91 91 83 86 96
66 62 59 56 54 52 50 49 48 47 46 45 44 43 41 39 37 34 31 28 27 29 32 33 30 25 22 22 23 24 25 26 26 25 25 25 26 27 28 28 26 25 25 25 26 27 26 25 25 26 28 29 29 28 27 26 26 25 25 25 25 25 25 23 22 20 18 17 16 19 23 25 28 43 69 92 99 88 70 65 78 89 83 79 89
55 53 52 52 51 49 47 45 43 42 42 42 43 43 42 39 37 34 32 33 36 37 35 30 25 23 24 25 25 25 26 27 27 26 27 28 28 29 30 31 30 29 29 29 29 29 29 28 28 29 30 30 29 28 27 26 26 26 26 26 26 26 26 25 25 23 22 20 17 16 20 24 24 29 47 73 94 98 83 66 67 79 83 77 80
48 47 45 42 39 37 36 36 39 42 45 48 49 47 43 39 37 38 39 40 39 35 30 27 26 27 27 27 27 28 29 29 28 28 28 29 29 30 31 32 32 31 31 31 31 31 29 28 28 29 29 29 28 27 27 26 26 27 27 27 27 27 26 25 26 25 24 24 22 18 17 20 23 23 30 49 75 96 97 80 66 69 76 77 76
Wind_Speed
49 50 50 50 50 50 50 50 49 49 48 48 49 49 50 50 51 53 56 60 63 65 65 65 63 63 66 66 63 61 60 58 54 51 49 49 49 51 53 54 57 59 62 65 69 72 75 78 81 82 84 86 87 85 85 87 90 92 89 81 69 60 55 53 51 52 57 59 60 61 60 57 55 56 59 64 68 71 73 76 76 75 74 74 75
50 50 50 51 51 50 49 49 49 49 49 49 52 55 57 58 58 57 57 59 60 60 62 63 62 63 65 63 61 61 61 56 51 51 52 52 54 56 56 56 59 63 66 69 72 75 78 81 84 86 86 88 88 86 86 89 91 93 92 86 77 67 60 57 55 54 57 61 62 63 64 65 62 58 56 60 64 68 71 75 77 78 77 76 76
50 50 50 50 50 49 49 49 49 50 51 53 58 62 63 63 62 59 57 58 60 62 63 61 59 61 62 61 62 61 59 55 52 53 55 57 59 59 59 60 63 67 70 72 74 77 81 84 87 88 88 88 88 86 87 90 92 94 94 90 84 75 65 60 58 55 56 60 65 67 68 68 68 63 56 56 60 64 68 72 75 78 80 78 77
51 51 50 50 50 49 49 49 50 52 53 56 62 66 65 62 60 57 58 63 65 64 61 58 57 59 59 60 60 57 56 57 57 58 59 60 60 61 62 64 67 70 73 75 77 79 82 86 88 90 89 88 87 86 88 91 93 97 97 93 89 82 71 63 59 56 55 57 63 69 72 71 70 66 59 55 57 60 63 68 72 76 79 81 79
52 51 51 51 50 50 49 50 52 53 54 58 61 62 61 59 58 59 63 68 68 63 58 56 55 56 56 56 55 55 58 60 60 62 63 62 61 62 63 66 69 73 76 77 79 82 85 88 90 90 90 88 87 87 91 93 96 100 100 96 92 87 78 68 63 57 54 55 59 67 73 73 71 67 61 56 57 58 59 62 67 72 76 80 81
53 52 52 52 51 51 50 50 53 55 56 60 61 60 60 61 62 65 69 71 68 60 55 53 54 54 54 54 53 55 59 61 63 66 65 64 63 62 63 67 71 74 77 80 82 84 87 89 90 91 90 88 88 90 94 96 99 103 103 98 94 90 82 73 66 60 54 53 56 63 70 73 71 68 63 59 57 57 57 59 63 67 71 76 80
54 54 54 53 51 50 49 48 52 55 56 59 62 64 63 61 62 67 70 69 63 56 51 52 53 52 52 52 54 58 61 64 68 69 67 66 65 64 65 68 72 76 80 82 84 85 87 89 91 92 89 88 90 93 96 99 103 107 106 100 95 92 84 75 68 61 55 52 53 58 65 69 70 66 63 61 58 56 56 57 60 63 67 71 77
55 55 54 53 52 50 49 49 50 52 55 56 59 62 60 55 59 67 68 65 61 57 55 54 53 52 53 56 60 63 67 70 72 71 69 69 69 69 69 71 75 78 81 83 84 85 86 89 92 91 90 91 93 95 99 103 106 110 108 101 96 93 86 77 70 63 56 52 51 54 59 65 67 65 63 62 59 57 55 55 57 60 62 67 73
57 57 57 55 53 50 48 45 42 45 51 54 57 61 56 52 59 66 66 64 63 62 61 60 58 59 62 66 70 73 75 76 76 75 74 73 73 72 72 74 77 80 83 86 86 85 87 90 92 92 93 94 96 98 102 106 109 113 109 102 98 95 89 81 73 65 58 53 50 51 55 60 63 64 63 62 60 58 55 54 55 57 59 62 68
60 61 59 56 52 49 45 40 36 39 44 48 55 59 55 55 61 64 64 66 67 67 67 67 68 71 74 78 80 81 81 79 78 78 77 76 74 73 75 78 78 81 86 87 84 84 87 91 94 95 95 96 98 101 105 108 112 114 109 102 99 97 91 84 76 68 62 56 50 48 50 55 60 62 62 62 61 60 57 54 53 55 56 58 63
62 61 59 56 54 52 46 40 37 39 43 47 49 48 51 58 63 64 67 71 74 73 72 73 77 81 83 85 85 82 80 79 78 77 76 76 75 76 78 80 81 84 87 85 82 84 89 94 98 98 97 97 100 103 107 111 115 115 108 102 100 98 92 87 80 72 65 58 52 46 47 51 56 59 61 62 62 60 57 54 53 53 54 55 59
62 60 58 56 55 53 48 42 38 39 44 49 49 51 59 65 66 69 76 81 81 79 78 80 84 85 85 84 82 80 78 76 74 74 75 76 77 79 83 85 86 88 88 86 87 90 94 98 100 99 98 98 100 104 108 113 116 114 107 102 101 98 94 88 82 75 67 60 53 46 44 48 52 56 60 61 60 59 56 55 54 53 52 53 56
61 59 57 55 54 52 51 47 43 41 46 53 57 63 70 72 74 78 83 84 83 82 83 87 87 85 83 81 80 78 76 74 73 74 77 79 81 84 86 87 88 88 89 90 93 95 97 97 97 97 97 98 101 106 111 115 116 112 106 104 103 99 94 89 83 75 67 61 53 45 43 45 48 53 59 60 59 58 56 56 55 55 54 54 53
60 58 57 56 56 54 51 50 46 45 52 60 63 65 69 73 75 78 80 82 83 84 86 88 86 83 82 81 81 80 78 77 78 79 80 82 85 85 85 87 89 91 93 95 97 97 97 95 96 97 98 100 104 110 114 117 114 109 106 105 104 100 94 89 83 74 66 59 52 44 41 42 45 49 55 59 59 58 57 56 56 56 56 55 52
60 58 58 58 57 56 55 53 49 47 54 62 64 64 66 68 70 74 77 80 83 85 87 87 84 81 80 80 79 80 81 82 82 80 80 83 84 84 85 89 92 95 97 98 98 97 95 95 97 99 101 105 110 115 117 116 111 108 107 106 104 100 95 89 83 74 66 58 50 43 38 39 43 46 51 55 58 58 57 57 56 55 56 57 55
61 60 59 58 57 56 58 57 53 50 54 59 61 62 63 65 68 72 75 78 80 83 86 86 82 78 78 78 78 80 83 83 82 80 81 83 83 83 87 92 96 98 98 97 96 95 94 96 100 105 109 113 116 118 117 113 109 109 109 107 105 101 95 90 83 74 65 56 48 42 38 37 40 44 47 52 55 56 57 58 57 55 57 59 60
63 61 59 58 57 57 59 58 53 51 50 53 56 58 61 66 68 69 72 75 76 80 84 85 84 84 85 83 82 82 82 80 79 80 81 82 82 85 91 96 98 98 96 94 95 95 97 100 106 111 115 118 120 119 115 111 110 111 110 108 105 101 95 90 83 74 64 54 46 42 38 35 37 40 43 48 52 54 55 57 58 58 59 60 61
64 62 60 59 57 58 59 57 54 52 52 55 58 59 61 67 69 67 69 72 75 79 82 83 85 87 86 83 80 78 76 76 78 81 82 82 84 89 94 97 97 96 95 95 97 98 101 106 111 116 119 121 121 118 113 112 113 112 111 109 106 100 96 91 83 74 64 53 45 41 38 35 35 36 39 43 47 50 52 55 58 60 61 61 60
66 64 62 61 59 58 58 56 55 55 55 57 61 62 63 67 68 67 68 71 75 77 78 80 82 82 79 77 75 74 74 77 80 82 84 85 87 90 93 94 95 95 96 97 100 102 106 111 115 118 120 120 118 115 113 115 116 114 112 110 105 100 96 91 82 73 63 53 45 40 37 35 34 33 35 38 42 47 50 52 57 60 61 62 60
68 66 65 64 61 59 58 57 57 57 56 58 63 65 64 65 65 66 67 69 72 73 73 73 73 71 68 69 71 73 75 78 80 81 83 85 87 89 91 91 93 95 99 102 105 108 112 115 116 118 119 118 116 115 116 117 117 115 113 110 104 100 96 90 81 72 62 53 46 41 36 35 34 32 32 34 37 42 47 50 54 57 59 61 60
69 68 67 65 62 61 59 57 56 56 57 60 63 64 65 65 65 65 66 66 68 69 68 65 63 63 63 65 70 71 70 72 75 78 80 83 87 89 90 92 95 99 103 106 109 112 114 116 116 117 117 117 116 117 118 118 117 116 113 109 104 100 96 88 79 69 59 51 46 42 37 34 34 32 30 31 34 38 42 46 49 52 55 57 58
70 69 68 67 66 63 59 55 52 52 56 59 62 63 65 66 65 65 65 65 64 64 64 63 64 65 66 68 68 65 64 66 71 75 80 84 88 90 92 95 98 102 106 109 111 114 115 116 116 117 118 118 119 120 120 119 117 116 113 108 103 99 94 85 76 67 57 49 45 42 38 34 33 32 30 30 32 35 37 41 44 47 50 53 55
71 71 72 71 68 64 59 55 52 53 57 61 63 65 67 68 67 67 67 65 62 61 61 63 64 65 67 69 68 66 68 73 77 80 84 88 90 92 95 98 102 105 108 110 113 115 116 117 118 118 119 120 120 120 120 119 118 116 112 107 102 97 90 81 73 65 55 48 44 42 38 34 32 31 30 30 32 34 35 36 38 41 45 48 51
73 73 73 72 69 66 63 59 55 54 58 61 63 66 69 69 69 70 71 71 69 66 64 64 64 65 67 70 72 74 78 83 86 89 92 93 94 96 99 103 107 109 110 112 114 116 118 118 119 120 121 121 120 120 120 119 118 115 110 105 100 93 85 77 69 61 53 47 43 41 38 34 31 30 30 30 31 32 33 34 35 37 40 44 47
75 75 75 73 72 70 67 62 58 56 58 60 62 65 69 72 74 76 77 79 80 78 74 71 70 71 73 75 79 83 87 91 94 97 99 100 100 101 104 107 110 110 110 112 114 115 117 119 120 121 121 120 120 121 121 119 117 113 108 103 96 88 79 73 65 57 50 45 42 40 36 32 30 29 29 30 30 30 31 31 31 33 36 40 43
77 76 75 74 73 72 70 66 63 61 60 60 62 66 70 71 70 70 72 75 78 80 79 78 77 78 80 82 85 89 91 94 97 99 101 103 104 105 108 109 109 109 109 110 113 115 118 119 120 120 119 120 121 121 121 118 115 110 105 99 91 82 74 69 62 54 48 43 41 39 35 31 29 29 29 29 29 28 28 29 29 29 31 36 40
78 76 74 73 72 72 71 71 69 66 64 63 63 66 66 61 57 57 59 61 64 68 72 75 76 78 79 81 84 87 90 92 94 97 99 102 104 107 108 109 108 109 110 111 113 115 117 117 118 118 119 120 121 120 119 115 111 107 101 93 84 76 70 64 57 51 45 42 39 37 33 30 29 29 29 29 28 27 27 28 28 27 28 33 37
77 75 73 72 71 71 72 71 71 69 68 66 65 65 64 62 62 62 61 59 60 63 65 68 70 72 75 78 81 85 88 91 93 96 99 102 104 105 106 106 107 109 110 111 112 113 114 115 116 117 119 119 119 117 115 111 107 102 95 86 78 72 66 60 54 48 43 39 38 36 32 29 29 29 29 28 28 27 26 26 26 26 27 31 33
77 76 73 71 71 72 72 71 71 71 72 71 71 70 69 69 69 69 67 66 66 67 68 69 70 72 75 78 81 85 88 91 93 96 98 99 100 101 102 104 106 107 108 109 109 111 112 114 115 116 116 116 115 112 109 106 102 95 88 80 74 67 61 55 50 45 40 37 36 34 31 28 29 30 29 28 27 27 27 25 25 25 27 28 30
78 77 76 75 75 76 75 74 75 77 78 78 78 77 75 74 73 73 72 72 71 72 73 74 76 79 82 85 88 91 93 95 95 95 95 95 96 97 99 101 103 105 106 107 108 110 111 112 112 112 111 110 109 107 105 101 95 87 81 75 69 62 56 51 47 42 38 35 35 33 30 29 29 30 29 28 28 28 27 26 25 24 25 28 29
78 79 79 80 80 80 80 80 81 81 81 81 80 79 78 79 79 78 77 76 76 78 79 80 82 85 88 92 95 97 98 97 96 93 93 93 94 96 99 100 102 104 104 105 106 106 107 107 107 107 106 106 105 102 99 94 87 81 75 69 63 57 52 47 43 39 35 34 34 33 30 29 30 30 29 28 28 28 27 26 25 24 26 29 28
79 79 80 81 82 82 83 83 83 82 81 81 81 81 83 84 83 82 81 81 82 84 85 86 88 90 93 95 97 97 97 96 93 92 92 93 94 96 97 98 99 100 100 101 102 103 103 104 104 103 102 101 99 97 92 86 80 74 69 62 56 52 48 44 40 37 33 32 33 33 31 30 31 30 29 28 28 28 27 26 25 25 27 29 27
79 78 78 79 80 81 82 83 83 83 84 85 86 87 88 87 86 85 84 85 88 91 92 93 93 94 95 96 96 95 94 93 92 91 91 92 92 93 95 96 97 98 99 100 101 101 102 101 100 99 98 96 93 90 84 79 73 67 61 56 51 48 45 41 37 35 32 31 33 34 32 31 31 30 29 28 28 28 27 26 26 27 28 27 26
81 79 79 80 80 81 83 85 86 87 88 90 90 90 89 88 87 87 88 90 93 95 96 96 96 96 96 95 93 91 90 90 90 90 91 91 93 94 96 98 99 99 100 100 100 99 99 97 96 94 92 89 85 81 76 70 65 60 55 51 47 45 42 39 35 33 31 31 33 34 34 33 31 30 29 28 28 29 28 27 26 27 28 27 27
82 81 82 83 83 84 85 86 87 88 88 88 88 88 89 90 91 92 93 94 95 96 97 98 97 95 92 90 87 86 87 87 89 90 92 94 95 97 98 99 100 100 99 99 98 96 95 93 90 87 84 80 76 71 67 62 58 54 51 48 44 41 39 37 34 32 31 32 34 36 36 34 32 30 30 29 29 29 29 27 27 27 27 27 27
82 82 83 84 85 84 84 84 84 85 85 87 88 90 92 93 94 95 95 96 97 98 98 95 92 88 86 84 84 84 86 89 90 93 95 96 98 99 100 100 99 98 96 95 93 91 88 85 83 79 75 71 67 63 59 56 54 51 49 45 41 38 37 35 33 31 31 32 35 37 37 36 33 31 30 30 29 29 29 27 26 27 27 27 27
84 85 85 85 85 84 84 84 84 85 87 89 91 93 94 94 95 95 96 97 97 96 92 87 83 81 81 82 84 87 90 92 94 96 97 98 99 98 98 96 94 92 90 87 85 82 79 77 74 71 67 63 60 57 55 53 51 49 46 42 38 36 35 34 32 30 31 33 36 39 39 37 35 32 31 31 30 29 29 27 26 25 26 27 28
86 88 89 89 88 87 87 87 89 90 91 92 92 93 94 95 95 95 94 92 91 88 85 81 80 81 83 85 88 91 93 95 96 97 97 97 96 94 92 89 86 83 80 78 75 73 71 69 66 63 60 57 55 53 51 50 48 46 43 40 36 33 33 33 32 30 31 34 38 40 40 39 37 33 32 32 31 30 29 27 25 25 26 28 29
91 92 93 92 92 91 92 93 94 94 94 94 94 95 94 92 90 87 84 84 85 85 84 83 84 86 88 90 93 94 95 96 96 95 94 92 89 86 82 79 75 73 71 69 67 65 64 62 59 57 55 53 51 49 48 47 45 42 40 37 34 32 31 32 32 30 31 34 39 42 42 41 39 35 33 32 32 31 29 27 25 25 27 29 30
93 94 95 96 97 98 99 99 98 97 97 95 93 89 86 83 81 80 80 82 86 88 88 89 91 92 94 95 95 95 95 94 92 90 87 84 81 79 75 72 69 67 64 62 61 59 58 56 55 53 52 50 48 46 45 43 41 39 37 35 33 32 31 31 32 31 31 34 39 43 44 44 41 38 34 33 33 32 30 28 26 26 28 30 31
96 98 100 101 103 103 103 101 98 96 93 89 84 81 81 81 82 82 84 86 88 90 92 93 95 96 96 96 96 94 93 89 86 82 80 78 76 74 71 68 64 61 58 56 55 54 54 53 52 51 49 47 45 43 41 40 38 36 34 34 33 32 32 32 32 32 32 34 39 44 46 46 44 40 36 34 34 34 32 29 28 28 30 31 33
101 101 102 103 103 103 101 97 93 90 86 84 82 83 85 85 85 86 88 89 91 92 94 95 96 96 96 95 93 90 86 82 78 76 75 73 72 70 67 64 60 57 55 53 52 51 51 51 50 48 47 45 43 41 39 37 36 35 34 33 32 32 32 32 32 32 33 34 38 44 48 48 46 43 39 36 36 35 33 31 30 30 31 32 36
100 100 100 99 99 98 95 92 89 88 88 89 90 90 90 90 90 91 92 93 94 95 96 96 96 96 95 91 86 81 77 75 73 71 70 68 66 64 61 59 56 54 53 51 50 48 48 47 47 45 43 42 40 39 38 36 35 34 33 32 30 30 31 31 31 32 33 34 37 43 48 50 49 47 43 39 38 37 35 33 32 32 33 34 38
96 96 95 94 92 92 91 90 90 91 93 94 96 97 96 96 96 96 96 96 97 97 96 95 94 92 89 83 78 74 72 70 69 67 64 62 60 58 56 54 52 51 50 48 46 45 44 43 43 41 40 39 38 37 36 35 34 32 31 30 29 28 28 30 30 31 33 34 36 42 48 51 51 50 46 43 40 39 38 36 34 35 36 37 40
89 90 90 90 91 91 92 92 93 94 95 97 98 99 100 99 99 99 98 98 96 95 94 92 89 84 79 75 72 70 68 66 64 61 59 57 54 53 51 49 48 46 45 44 42 41 40 40 39 38 36 36 35 34 33 32 31 30 29 28 27 26 26 28 29 30 32 34 36 40 46 52 54 53 50 46 43 41 40 39 37 38 40 41 42
84 87 90 92 94 94 95 95 96 97 98 99 99 100 101 100 100 99 98 96 94 93 90 85 80 75 72 70 68 66 63 60 58 56 54 52 50 48 47 45 44 42 41 40 39 38 37 36 35 34 33 32 32 31 31 30 29 28 26 25 25 25 25 26 28 29 31 33 35 38 44 50 55 55 53 50 47 44 43 42 40 40 43 45 44
85 89 92 94 96 97 97 98 98 99 99 99 99 100 100 99 99 97 95 93 90 87 81 76 72 70 68 66 63 59 57 55 53 51 50 48 46 44 43 42 40 39 37 36 35 35 35 34 33 32 30 30 29 29 28 28 27 25 24 23 22 22 23 24 26 28 30 32 34 37 41 48 54 57 57 54 51 47 45 45 43 43 46 48 49
88 92 94 96 97 99 99 99 99 99 99 99 98 98 97 96 94 92 89 87 83 78 74 71 69 67 64 60 56 54 51 50 49 48 46 44 42 41 40 39 38 36 35 34 33 33 33 33 32 30 29 28 27 27 27 26 25 24 23 22 21 20 21 21 23 25 28 31 33 35 39 44 52 57 60 58 55 51 49 47 46 46 48 50 53
92 94 96 97 98 99 99 98 98 97 96 95 94 93 91 89 87 84 81 78 75 72 70 68 66 62 58 55 52 49 47 46 46 45 43 41 40 38 38 38 37 36 34 33 33 33 33 32 31 29 28 27 27 26 26 26 25 23 22 21 20 20 20 20 21 23 25 28 31 34 37 41 47 55 60 61 59 55 52 50 49 48 49 52 55
93 95 96 96 96 96 95 94 93 92 90 88 86 84 82 80 78 76 73 71 70 69 67 65 61 57 54 51 49 46 44 43 42 41 40 39 37 36 36 36 36 35 34 33 33 33 33 32 30 28 27 27 27 26 26 25 24 23 22 21 20 20 20 20 20 21 22 25 28 31 35 38 43 50 58 62 63 60 56 53 52 51 51 53 56
90 90 90 90 89 88 88 86 85 83 81 79 77 76 75 73 71 69 68 68 67 65 63 59 56 54 52 49 47 45 43 42 41 40 39 38 37 36 35 35 35 34 33 33 33 33 33 32 30 28 27 27 27 26 26 25 24 23 22 21 20 20 20 20 20 20 21 23 25 28 32 36 40 45 52 59 64 64 61 57 55 54 53 54 57
Wind_Direction
306 309 312 312 313 314 314 315 317 318 318 318 317 314 312 310 307 305 306 307 308 309 310 311 309 308 310 313 313 313 313 314 316 316 314 313 314 316 318 320 323 325 326 328 328 328 327 327 328 328 329 331 332 333 335 336 337 338 340 340 335 327 322 320 315 305 293 283 278 276 275 271 262 252 245 242 238 236 235 235 236 235 233 231 229
307 309 310 311 311 313 314 315 315 316 316 316 315 313 310 308 305 304 307 309 308 308 308 307 305 307 311 314 313 312 312 313 316 318 317 315 316 317 319 320 322 324 326 327 327 327 327 326 326 326 327 329 330 331 333 334 335 336 338 339 336 329 324 320 316 309 299 288 279 272 270 270 268 260 251 245 241 237 235 235 235 235 235 232 230
306 307 308 309 309 311 312 313 314 313 313 315 314 311 307 305 304 304 308 311 309 307 307 303 303 308 312 313 311 310 311 312 314 317 319 318 316 316 316 316 319 322 324 325 325 325 324 324 324 324 325 327 329 330 331 332 333 334 335 336 336 331 324 319 315 309 300 291 282 274 269 267 267 265 258 251 246 241 237 235 234 234 235 234 231
304 305 306 307 308 310 311 311 312 310 311 313 312 310 307 305 303 301 305 311 310 308 306 301 302 309 311 310 310 309 310 312 312 315 317 317 315 314 313 312 314 317 320 321 321 321 322 322 322 324 325 326 327 328 329 330 331 332 333 334 334 331 325 319 314 308 299 290 281 274 269 266 266 266 264 258 253 246 240 237 235 233 233 233 232
303 304 305 305 307 308 308 309 308 306 308 310 310 308 306 303 300 298 303 310 311 307 303 300 303 308 308 307 308 308 310 312 312 312 314 313 312 311 310 310 311 314 316 317 318 319 319 320 322 323 324 325 325 326 327 328 329 330 331 332 333 331 326 320 315 308 298 289 281 274 269 267 267 267 267 263 259 253 245 240 237 234 233 233 232
302 303 303 305 306 307 308 307 307 306 307 308 310 310 306 302 300 300 303 308 309 305 302 302 304 305 304 304 306 308 311 312 311 311 310 310 309 309 308 309 311 313 314 315 316 318 319 320 322 323 323 322 323 325 326 327 328 329 330 331 331 330 327 322 317 310 300 290 282 274 270 268 268 268 268 266 262 258 251 244 240 236 234 232 231
301 301 302 304 305 307 307 305 306 307 306 308 313 314 308 304 303 304 304 306 306 305 304 304 303 303 303 304 306 308 310 311 311 310 308 307 307 307 306 308 310 312 313 315 316 317 318 320 322 322 321 321 322 324 325 326 327 328 329 329 330 329 326 322 319 313 303 293 283 276 271 269 268 268 268 267 264 260 255 249 244 239 235 233 231
299 300 300 301 303 305 304 305 307 306 305 308 311 311 308 304 303 305 305 304 304 304 304 303 301 302 304 307 308 309 309 310 309 308 306 305 305 305 304 306 308 311 313 315 316 317 318 320 321 321 320 321 322 323 324 325 326 327 328 328 329 328 326 323 320 315 307 297 286 277 271 269 269 267 266 265 264 261 258 253 248 242 237 233 231
298 299 299 300 303 304 305 310 311 306 307 308 303 301 302 299 299 302 302 300 301 302 303 302 301 302 304 306 306 306 307 307 307 306 304 304 304 304 303 305 307 310 313 315 315 316 318 320 321 320 320 321 321 322 323 324 325 326 327 328 328 328 326 324 321 317 310 301 290 278 271 268 267 266 264 264 263 262 259 255 251 246 240 235 232
298 298 300 302 305 306 309 314 312 308 309 307 300 297 293 290 295 298 297 297 299 300 301 302 301 301 302 303 304 305 305 306 305 304 303 303 304 303 303 304 305 308 312 313 314 316 318 319 320 321 321 320 320 321 322 323 324 325 326 327 328 328 326 324 322 319 313 305 294 281 271 266 264 263 261 261 261 260 258 255 251 248 243 237 233
296 298 300 302 304 307 310 311 309 307 302 297 295 291 281 281 291 295 294 296 297 296 297 299 300 301 302 303 304 305 305 304 304 303 302 303 304 303 303 304 305 308 310 311 312 314 316 318 320 320 320 319 319 320 321 322 323 324 325 326 327 328 326 325 323 320 315 307 298 285 272 264 261 261 260 259 259 258 257 255 251 248 245 239 235
295 297 300 301 302 304 305 304 302 296 288 282 279 274 272 277 286 290 291 294 294 292 292 295 298 300 302 304 304 304 303 303 303 303 303 304 305 305 305 306 307 308 308 309 311 313 315 316 318 319 319 318 318 319 320 321 322 323 324 326 327 327 326 325 323 320 315 308 300 289 275 264 259 258 258 258 257 257 256 253 251 248 246 242 237
294 296 299 301 302 303 301 299 296 289 279 274 271 269 271 275 279 283 285 287 287 287 289 292 295 299 301 302 301 300 300 301 302 303 305 305 306 306 306 306 307 308 308 309 311 313 314 316 318 318 318 316 316 317 319 320 321 323 324 325 326 327 325 324 322 319 315 309 300 291 279 268 259 255 256 257 257 256 253 251 248 246 245 243 238
294 296 299 301 301 301 299 297 295 287 277 273 273 273 274 276 278 280 280 280 281 283 286 290 294 297 298 298 296 295 295 298 301 304 305 305 305 305 304 305 307 309 310 312 312 313 314 316 318 318 316 314 315 317 318 319 321 322 323 324 325 326 325 324 322 319 314 308 300 292 283 273 262 255 254 255 255 254 252 249 246 244 243 243 239
295 297 299 299 299 298 298 297 293 283 274 272 273 275 277 277 277 277 277 277 278 280 283 287 290 292 293 293 292 291 293 297 301 302 302 303 303 303 304 306 308 310 312 313 313 313 314 315 316 316 314 314 315 316 318 319 320 321 322 323 325 325 324 323 321 319 314 308 301 293 285 275 266 257 253 253 252 252 251 249 246 243 241 241 239
294 295 295 296 296 296 296 296 292 284 278 276 275 275 276 275 274 273 273 274 276 278 280 283 284 286 286 286 286 289 293 297 298 298 299 300 301 301 304 307 310 312 312 312 312 312 312 313 314 314 314 314 314 315 317 318 319 320 321 323 324 324 324 323 321 319 314 308 301 294 287 276 267 260 254 252 251 249 248 248 247 244 241 239 238
290 291 291 293 294 295 295 294 290 283 278 276 275 274 272 271 271 271 272 273 274 276 278 279 280 280 281 281 284 289 294 295 295 295 297 298 299 300 304 308 310 311 312 311 311 310 310 311 312 312 312 312 313 314 316 318 319 319 320 322 323 324 323 322 321 319 314 308 300 295 289 279 269 262 256 252 250 248 246 246 247 245 242 240 237
288 288 289 291 292 293 293 293 288 280 274 273 275 273 269 267 269 271 272 275 277 278 279 280 280 280 281 282 285 289 291 291 291 293 296 297 297 298 302 306 308 309 310 309 310 310 310 310 311 311 311 311 312 313 315 317 317 318 319 320 322 323 323 322 321 318 314 307 300 296 291 282 272 264 257 252 250 248 245 243 245 245 243 241 238
288 288 290 291 291 292 293 292 287 282 278 275 275 273 268 267 270 273 275 278 279 280 280 280 281 283 284 284 285 286 287 289 291 294 295 295 295 297 302 305 307 307 307 308 308 309 309 310 310 310 310 310 311 313 314 315 316 317 318 319 321 322 323 321 320 318 313 307 301 298 293 285 276 267 259 252 248 247 245 242 243 244 244 242 240
288 289 290 291 292 293 294 292 288 284 279 275 275 275 271 269 271 275 277 279 279 280 282 282 283 285 285 286 286 287 288 292 294 294 293 293 296 300 304 305 305 305 306 306 307 308 308 309 309 309 310 310 310 312 313 313 314 315 317 318 320 322 322 320 319 316 312 306 302 299 294 287 280 273 264 256 248 245 244 243 242 243 243 242 240
289 291 291 292 294 295 295 294 289 281 274 272 274 274 271 270 272 273 276 277 277 278 280 282 282 282 284 287 289 292 294 295 293 291 291 294 298 301 302 303 303 304 305 306 306 307 308 308 308 309 309 309 310 311 311 312 313 314 316 317 319 321 320 319 317 315 311 307 303 299 295 289 283 277 270 262 253 246 243 242 242 242 242 241 240
291 292 292 294 296 296 295 294 287 276 270 269 270 269 270 271 272 272 272 274 276 277 278 279 279 280 282 285 287 289 291 290 288 289 292 295 297 299 300 301 303 303 304 305 305 306 306 307 307 308 308 308 308 309 309 310 312 313 315 317 318 320 319 317 316 313 310 307 303 299 294 289 284 279 273 266 259 253 246 243 242 241 241 240 239
292 293 294 296 296 295 294 293 288 279 275 275 275 274 274 274 273 272 272 273 275 276 276 276 277 277 279 280 281 282 284 285 285 288 291 293 295 297 299 301 302 303 303 303 303 304 305 305 305 305 306 306 307 307 308 309 311 312 314 316 318 318 317 315 314 312 309 307 303 297 293 288 282 277 273 267 262 257 252 246 242 240 239 238 237
292 293 295 295 296 295 294 293 291 284 280 281 283 283 281 278 276 274 273 273 275 276 275 275 275 275 276 278 279 281 281 282 283 286 288 291 293 295 297 299 301 302 301 301 301 302 302 303 303 303 304 304 305 306 307 308 310 312 314 315 317 317 315 314 312 310 308 306 301 295 290 285 279 274 270 266 262 258 254 249 244 239 237 236 236
294 295 297 297 297 297 296 295 293 289 286 285 285 285 283 281 279 277 276 275 277 278 277 276 276 277 278 279 281 282 282 282 283 285 287 290 291 293 295 297 298 299 299 299 299 299 300 301 301 302 302 303 304 305 306 307 309 311 313 314 315 315 313 312 311 309 307 304 298 292 286 280 274 270 266 262 259 256 254 251 246 239 235 234 234
297 299 300 300 300 299 298 297 295 292 290 289 288 288 287 284 281 280 278 276 276 277 277 277 277 278 279 281 283 285 285 286 286 287 288 289 290 291 292 294 295 297 297 297 297 297 298 299 299 300 301 302 303 304 305 307 309 311 312 313 313 313 312 310 309 307 305 301 294 288 282 275 269 265 262 258 255 253 252 252 248 241 235 233 232
299 300 300 301 301 300 299 298 296 295 294 292 292 292 291 287 284 285 283 278 276 276 276 277 277 278 280 283 285 286 287 288 288 288 288 289 289 290 291 293 294 295 296 296 296 296 296 297 298 299 300 301 302 303 305 307 308 310 311 311 311 311 310 308 307 305 303 297 290 283 277 270 264 260 256 254 253 253 252 252 250 244 237 233 231
298 299 300 300 299 298 297 296 295 294 294 293 293 292 290 287 287 289 288 284 281 281 282 283 283 283 284 285 286 287 287 287 287 287 287 288 289 290 292 293 293 293 293 294 294 294 295 295 296 298 299 300 301 303 304 306 308 308 309 309 309 310 309 306 305 303 300 293 285 278 272 264 259 255 252 251 253 254 253 252 250 245 238 234 230
298 298 299 299 298 297 297 296 295 294 294 295 295 294 293 291 292 293 293 291 290 290 290 290 290 290 289 288 288 289 289 289 289 289 289 289 290 291 291 291 291 291 292 292 292 293 294 295 296 297 298 299 301 302 304 305 306 307 307 307 308 308 306 304 303 300 296 288 280 273 267 258 253 251 249 250 252 255 255 254 250 244 240 237 231
297 297 298 298 297 296 295 294 293 293 294 295 296 296 295 295 295 296 296 295 294 293 292 291 291 292 291 291 291 292 293 293 293 292 291 290 290 290 290 290 290 290 290 291 292 292 293 294 295 296 297 299 301 302 303 304 304 305 305 306 306 306 304 302 300 297 291 283 275 268 261 253 248 247 248 250 252 255 256 255 250 244 240 238 233
294 294 294 293 293 291 290 290 289 289 290 292 292 292 293 293 294 294 294 294 293 292 292 292 292 293 292 293 293 294 295 296 295 293 290 289 289 289 288 289 289 290 291 291 292 293 293 294 295 296 298 299 300 302 302 303 303 303 303 304 304 303 301 299 296 293 286 276 268 262 255 248 245 245 246 250 253 256 256 255 251 245 240 238 233
291 291 290 289 288 288 287 287 286 287 287 287 287 288 289 290 291 292 293 292 292 292 292 293 294 294 294 295 295 296 296 296 295 293 290 289 289 289 289 289 290 291 292 292 293 294 294 295 296 297 298 299 300 301 301 301 301 301 302 302 302 300 298 296 293 287 279 269 261 256 250 245 243 243 245 249 253 256 255 253 252 247 243 239 232
289 289 288 287 287 286 286 285 285 285 285 285 286 287 288 290 291 292 293 293 294 295 296 297 297 297 297 297 296 296 295 294 293 292 291 290 290 290 291 291 292 293 294 294 294 294 295 295 296 297 298 299 299 299 299 299 299 299 299 300 299 297 295 293 288 281 273 262 253 249 245 242 240 241 243 246 251 254 253 253 252 249 245 239 231
289 290 289 287 286 286 286 285 285 285 285 286 287 288 289 291 292 293 294 295 296 297 298 298 299 298 298 296 295 294 293 292 291 291 291 290 291 291 292 293 294 294 295 295 295 295 295 296 296 297 298 298 298 298 297 297 297 297 297 298 297 294 291 288 282 275 266 256 246 242 241 240 238 238 240 243 247 251 252 252 251 249 245 238 230
289 288 287 286 286 285 285 285 285 286 286 286 288 289 291 292 293 294 295 296 297 298 298 298 298 297 296 295 293 292 291 290 290 290 290 291 292 292 293 294 295 295 295 295 295 295 295 296 296 297 297 297 297 296 296 295 295 295 295 295 293 290 287 283 277 269 261 250 240 236 237 238 237 235 237 240 243 247 250 250 249 247 243 236 228
288 286 285 285 285 285 285 285 285 286 287 288 289 291 292 292 293 294 295 297 298 298 298 297 297 296 294 293 292 290 290 290 290 290 291 292 293 294 294 294 294 294 294 295 295 295 295 295 296 296 296 296 295 294 294 294 294 293 293 293 290 286 281 278 272 265 255 245 236 231 233 237 235 232 234 237 240 244 247 248 246 244 240 233 224
287 286 286 286 286 285 286 286 286 286 287 288 289 290 291 292 294 295 296 297 297 297 296 296 295 293 292 290 290 289 290 290 291 292 293 293 294 294 294 294 294 294 294 294 294 294 295 295 295 295 295 294 294 293 293 292 292 292 291 290 287 281 276 273 269 261 252 242 233 227 229 233 233 231 232 235 239 241 244 245 243 239 234 227 219
287 287 287 286 286 286 286 287 287 287 288 289 289 290 292 293 294 295 296 296 295 294 294 294 293 292 291 290 290 290 291 292 293 293 294 294 294 294 293 293 294 294 294 295 294 294 294 294 294 294 294 293 292 292 291 290 290 289 288 286 283 277 271 269 266 258 249 240 232 225 225 229 231 230 230 233 237 239 240 241 240 233 226 220 213
288 287 287 287 287 288 288 289 289 290 290 291 292 292 293 294 295 296 296 294 293 293 293 292 292 291 291 291 291 292 292 294 295 295 295 295 294 294 294 295 296 296 297 296 296 295 295 295 294 294 293 292 291 290 289 288 287 286 285 283 279 274 268 266 264 257 247 238 231 224 221 224 228 228 228 231 235 236 237 237 234 225 218 213 208
288 288 288 288 289 290 290 290 291 291 292 293 293 294 295 295 295 294 293 291 291 292 292 291 291 291 291 292 293 294 295 296 296 296 296 296 296 296 297 298 299 299 298 297 296 296 295 295 294 294 293 291 290 288 287 285 284 283 282 280 277 272 266 263 262 257 247 238 231 224 220 221 225 227 226 227 231 233 234 233 227 220 213 208 202
286 287 287 288 288 289 289 290 290 292 292 293 293 293 293 293 292 291 290 289 290 290 291 291 292 292 293 294 295 296 297 297 297 297 297 297 297 298 299 299 299 299 298 296 295 295 295 295 294 293 292 291 289 287 286 285 283 282 280 277 275 271 266 262 259 256 248 238 231 224 219 219 222 225 223 223 226 230 231 229 224 217 211 205 197
285 285 286 286 287 287 288 289 290 290 291 290 290 291 291 291 291 291 291 291 291 291 292 293 293 294 295 296 297 298 298 298 298 298 297 298 298 298 298 299 299 298 296 295 295 295 294 294 293 292 291 290 289 288 286 285 284 282 280 277 273 269 265 261 257 254 248 239 231 225 219 217 219 222 222 220 222 226 227 225 222 216 210 202 194
285 285 286 287 288 289 290 292 293 294 294 294 294 294 294 294 294 294 294 294 294 294 294 295 295 296 297 298 299 298 298 298 298 298 298 298 298 298 298 298 298 297 296 295 295 294 293 292 291 290 290 289 289 288 287 286 284 283 281 278 273 269 265 260 256 251 247 240 232 225 220 216 216 220 221 219 219 222 223 222 219 215 209 202 193
286 287 288 289 290 291 292 293 294 295 295 296 296 296 296 295 295 295 295 295 295 295 295 296 297 298 298 299 299 299 299 299 299 300 300 300 299 299 298 297 297 296 295 295 294 293 291 289 289 289 288 288 288 287 287 286 285 284 282 279 275 270 265 260 255 250 246 241 234 227 221 216 215 217 220 219 217 218 220 219 216 213 208 201 195
287 288 289 289 290 290 291 292 293 293 293 293 293 293 294 294 294 294 294 295 295 295 296 297 298 298 298 299 299 300 300 300 300 301 301 300 300 299 298 297 296 295 295 294 293 291 289 288 287 287 287 287 287 287 287 287 286 285 283 281 277 272 266 260 255 251 246 242 236 229 222 217 214 215 218 219 217 216 217 216 215 211 206 202 198
287 288 289 289 290 290 291 291 292 291 291 291 291 292 292 293 293 294 294 295 295 296 296 297 298 299 299 300 300 300 300 300 300 300 300 299 299 298 297 296 296 295 294 293 292 291 290 288 287 287 287 287 287 287 287 287 286 286 286 284 281 275 268 261 256 251 247 243 238 232 225 220 215 214 216 218 217 215 215 214 214 211 206 202 200
286 287 287 287 288 288 289 290 290 290 290 290 290 291 291 292 292 293 294 294 295 296 297 298 299 299 300 300 300 300 300 300 299 299 298 298 298 297 297 296 296 295 295 294 293 293 291 290 289 289 288 288 287 286 286 286 287 287 288 287 284 280 273 265 258 253 248 244 240 235 229 223 218 215 215 218 218 216 214 213 213 211 207 203 201
282 283 284 285 286 287 287 288 288 288 289 289 289 290 290 291 291 292 292 293 295 296 297 299 299 299 299 299 299 299 300 299 298 297 297 297 298 298 297 297 297 296 296 296 295 294 292 291 291 291 290 289 287 285 284 285 286 286 286 286 285 281 276 270 263 257 252 247 242 237 232 227 221 217 216 217 218 218 215 213 212 211 208 204 202
281 282 283 284 284 285 285 286 286 286 287 287 288 288 289 289 290 291 292 294 295 297 298 298 298 298 298 298 299 299 298 297 296 296 296 296 297 297 297 297 298 298 298 297 296 294 293 292 292 292 290 287 284 282 282 282 282 282 281 281 280 279 276 272 267 261 256 251 246 241 235 230 225 221 217 216 217 218 217 215 213 212 210 206 204
281 281 282 282 282 283 283 284 284 285 285 286 286 287 288 289 290 291 293 294 295 296 297 297 297 297 298 298 298 298 297 296 296 295 296 296 296 296 296 297 297 297 297 296 295 293 291 291 291 289 287 284 281 280 279 279 278 278 278 277 276 275 273 271 268 264 260 255 251 246 240 234 229 225 220 218 217 218 219 217 214 213 211 209 206
279 279 279 280 280 281 281 282 283 283 284 285 285 286 288 289 290 292 292 293 294 295 295 296 296 297 297 297 297 297 298 297 296 297 297 297 297 296 297 296 296 296 296 295 293 291 290 289 289 287 285 283 281 279 278 277 276 275 274 273 272 271 270 268 266 264 261 257 254 249 244 238 233 229 225 221 218 218 219 219 217 215 213 211 209